Showing default

IRIDIUM 113, 42803

Orbit data source: Space-Track

IRIDIUM 113, 42803 is a payload satellite owned by Iridium (US) in LEO that was launched on Sun, 25 Jun 2017 UTC via an FALCON 9 launch vehicle from the Air Force Western Test Range (AFWTR). Payloads include a variety of satellites, spacecraft, and rockets equipped with specific instruments for various scientific and technological missions. These include communications satellites like Starlink; space stations such as the ISS; scientific satellites like the Hubble; Earth observation satellites from companies like Planet Labs, Umbra, and HawkEye 360; GPS; miniature CubeSats for education and research; and military/defense satellites.

Loading next visibility...
IRIDIUM 113 details
Identifier
42803, 2017-039A
Orbit
LEO
Last TLE update18 hours ago
Origin
Flag of USIridium (US)
ManufacturerOATK SSG Gilbert
MissionOperational Commercial Communications
Bus & MotorELITEBUS, Unknown motor
Mass860 kg wet, 700 kg dry
Launch date (UTC)
2017-06-25 (8 years ago)
Launch vehicle
FALCON 9
Launch site
Air Force Western Test Range (AFWTR)
Object type
Payload
Rocket body
Debris
Shape & HBRTrap Box + 2 Pan, 9.4 m
Radar Cross Section14.423 m², Large (>1 m²)

Expand to show TLE details & history

TLE from 18 hours ago
0 IRIDIUM 113
1 42803U 17039A   25043.88397219  .00000582  00000-0  20079-3 0  9994
2 42803  86.4038 166.6683 0001771 108.6656 251.4732 14.34218668401059
Epoch: 2025-02-12T21:12Z
Definitive object data (Epoch: 2025-02-12T21:12:55.197Z)
Latitude-0.00003°
Longitude65.27027°
Altitude781.118 km
Speed7.463 km/s
True Right ascension11h 06m 40s
True Declination0° 00' 00"
Sunlit
Object was in full shadow at TLE epoch
Visualization TLE readout
Latitude11.43811°
Longitude-115.75908°
Altitude779.361 km
Speed7.465 km/s
Apparent Right ascension01h 27m 44s
Apparent Declination-17° 51' 50"
Sunlit
Object is in daylight
Visualization observer readout
Local Sidereal Time17:19:38
Azimuth83.736° E
Elevation-35.728°
Doppler factor1
Orbital elements
Apogee altitude775.895 km
Perigee altitude773.362 km
Semi-major axis7,152.765 km
Eccentricity0.0001771
Inclination86.4038°
RAAN166.6683°
Arg. of periapsis108.6656°
True anomaly251.45396°
Mean anomaly251.4732°
Eccentric anomaly251.46358°
Mean motion3.58783 °/min
BSTAR0.00020079
Orbital period100.34 mins
Loading maneuver chart data...
Loading historical data...
Loading historical data...
Loading historical data...
Loading historical data...
Loading historical data...
Loading historical data...
Loading historical data...

IRIDIUM 113 Visibility forecast

Observer location: undefined°, undefined

Span
Click to sort rows by Start time (UTC) header in descending order
Start Az.
Max El. time (UTC)
Max El. Az.
Max El.
End time (UTC)
End Az.
9 mins2025-02-13 19:33:33.797Z16.904° NNE2025-02-13 19:37:33.797Z74.636° E31.208°2025-02-13 19:42:33.797Z149.374° SSE
6 mins2025-02-13 21:15:33.797Z318.122° NNW2025-02-13 21:18:33.797Z273.46° WNW21.414°2025-02-13 21:21:33.797Z233.127° WSW
8 mins2025-02-14 08:30:33.797Z176.381° S2025-02-14 08:33:33.797Z140.992° SSE44.376°2025-02-14 08:38:33.797Z4.525° NNE
|